GW2134 Weather Reports


time (UTC)temp
C
wind
direction
speed
KPH
gust
KPH
rain 1hr
cm
rain 24hr
cm
rain mn
cm
humidity
%
barometer
mb
20260509164554 20 350 0.0 4.8 0.00 0.00 0.00 54 1017.7
20260509163056 21 123 1.6 6.4 0.00 0.00 0.00 52 1017.7
20260509161603 22 115 1.6 6.4 0.00 0.00 0.00 47 1017.9
20260509160101 22 133 1.6 8.0 0.00 0.00 0.00 48 1017.9
20260509154552 22 74 1.6 12.9 0.00 0.00 0.00 46 1018.0
20260509153058 22 192 1.6 8.0 0.00 0.00 0.00 45 1018.0
20260509151555 22 130 1.6 6.4 0.00 0.00 0.00 44 1018.2
20260509150052 22 335 0.0 11.3 0.00 0.00 0.00 45 1018.1
20260509144554 22 299 1.6 11.3 0.00 0.00 0.00 47 1018.3
20260509143058 21 74 0.0 3.2 0.00 0.00 0.00 47 1018.6
20260509141550 21 115 0.0 9.7 0.00 0.00 0.00 47 1018.8
20260509140105 21 119 0.0 6.4 0.00 0.00 0.00 45 1018.9
20260509134556 22 105 1.6 11.3 0.00 0.00 0.00 46 1019.0
20260509133054 21 283 1.6 11.3 0.00 0.00 0.00 47 1019.1
20260509131556 21 0 0.0 6.4 0.00 0.00 0.00 44 1019.1
20260509130056 21 0 1.6 6.4 0.00 0.00 0.00 43 1019.1
20260509124553 22 118 3.2 12.9 0.00 0.00 0.00 41 1019.1
20260509123057 23 78 1.6 8.0 0.00 0.00 0.00 39 1019.2
20260509121551 22 63 0.0 11.3 0.00 0.00 0.00 39 1019.4
20260509120056 22 47 0.0 12.9 0.00 0.00 0.00 37 1019.4
20260509114552 22 144 6.4 12.9 0.00 0.00 0.00 37 1019.5
20260509113055 21 140 3.2 16.1 0.00 0.00 0.00 40 1019.7
20260509111558 21 138 3.2 12.9 0.00 0.00 0.00 40 1019.8
20260509110053 21 113 3.2 12.9 0.00 0.00 0.00 38 1019.8
20260509104555 21 143 3.2 14.5 0.00 0.00 0.00 39 1020.0
20260509103104 21 128 3.2 14.5 0.00 0.00 0.00 40 1020.1
20260509101608 20 296 4.8 16.1 0.00 0.00 0.00 40 1020.2
20260509100055 20 59 3.2 14.5 0.00 0.00 0.00 41 1020.2
20260509094600 20 100 1.6 14.5 0.00 0.00 0.00 43 1020.3
20260509093052 19 128 6.4 14.5 0.00 0.00 0.00 46 1020.3
20260509091558 19 0 1.6 11.3 0.00 0.00 0.00 46 1020.3
20260509090101 18 336 1.6 11.3 0.00 0.00 0.00 48 1020.3
20260509084607 19 152 1.6 12.9 0.00 0.00 0.00 48 1020.4
20260509083111 18 131 1.6 8.0 0.00 0.00 0.00 48 1020.4
20260509081553 18 155 1.6 6.4 0.00 0.00 0.00 50 1020.5
20260509080059 17 128 1.6 6.4 0.00 0.00 0.00 55 1020.6
20260509074610 16 0 1.6 6.4 0.00 0.00 0.00 56 1020.6
20260509073105 16 0 0.0 3.2 0.00 0.00 0.00 59 1020.6
20260509071558 15 0 0.0 3.2 0.00 0.00 0.00 63 1020.6
20260509070057 15 0 0.0 4.8 0.00 0.00 0.00 65 1020.7
20260509064605 14 0 0.0 4.8 0.00 0.00 0.00 67 1020.6
20260509063104 13 93 0.0 3.2 0.00 0.00 0.00 70 1020.6
20260509061607 12 132 0.0 4.8 0.00 0.00 0.00 72 1020.6
20260509060117 12 144 0.0 3.2 0.00 0.00 0.00 75 1020.6
20260509054554 12 0 0.0 3.2 0.00 0.00 0.00 75 1020.5
20260509053117 11 0 0.0 1.6 0.00 0.00 0.00 74 1020.5
20260509051611 11 0 0.0 1.6 0.00 0.00 0.00 74 1020.4
20260509044550 11 0 0.0 4.8 0.00 0.00 0.00 72 1020.2
20260509043055 11 346 0.0 4.8 0.00 0.00 0.00 72 1020.1
20260509041551 11 0 0.0 1.6 0.00 0.00 0.00 71 1020.1
20260509040106 11 0 0.0 3.2 0.00 0.00 0.00 70 1020.2
20260509034555 11 320 4.8 12.9 0.00 0.00 0.00 70 1020.0
20260509033114 11 319 6.4 9.7 0.00 0.00 0.00 72 1020.1
20260509031558 10 0 0.0 3.2 0.00 0.00 0.00 73 1020.0
20260509030055 10 0 0.0 0.0 0.00 0.00 0.00 75 1020.1
20260509024601 10 355 3.2 8.0 0.00 0.00 0.00 75 1020.0
20260509023050 10 346 1.6 3.2 0.00 0.00 0.00 76 1020.0
20260509021553 10 0 0.0 1.6 0.00 0.00 0.00 76 1020.1
20260509020105 10 0 0.0 6.4 0.00 0.00 0.00 76 1019.9
20260509014550 10 11 1.6 4.8 0.00 0.00 0.00 76 1020.0
20260509013056 10 0 0.0 3.2 0.00 0.00 0.00 75 1020.0
20260509011558 11 200 0.0 1.6 0.00 0.00 0.00 74 1020.0
20260509010049 11 0 0.0 1.6 0.00 0.00 0.00 74 1020.0
20260509004552 11 330 3.2 6.4 0.00 0.00 0.00 74 1019.9
20260509003056 11 0 0.0 3.2 0.00 0.00 0.00 72 1020.0
20260509001551 11 0 0.0 0.0 0.00 0.00 0.00 71 1019.9
20260509000051 11 0 0.0 6.4 0.00 0.00 0.00 71 1019.8
20260508234550 11 322 3.2 8.0 0.00 0.00 0.00 70 1019.7
20260508233058 11 355 4.8 8.0 0.00 0.00 0.00 68 1019.7
20260508231556 11 330 4.8 8.0 0.00 0.00 0.00 69 1019.8
20260508230055 11 0 0.0 8.0 0.00 0.00 0.00 70 1019.8
20260508224555 11 360 6.4 8.0 0.00 0.00 0.00 70 1019.7
20260508223053 11 21 1.6 4.8 0.00 0.00 0.00 72 1019.9
20260508221555 11 312 0.0 1.6 0.00 0.00 0.00 73 1019.9
20260508214554 11 0 1.6 4.8 0.00 0.00 0.00 73 1019.8
20260508213100 11 0 0.0 1.6 0.00 0.00 0.00 73 1019.7
20260508211556 11 0 0.0 8.0 0.00 0.00 0.00 72 1019.6
20260508210054 11 355 4.8 9.7 0.00 0.00 0.00 73 1019.5
20260508204554 11 355 0.0 4.8 0.00 0.00 0.00 71 1019.6
20260508203054 12 0 0.0 8.0 0.00 0.00 0.00 69 1019.6
20260508201553 12 349 4.8 8.0 0.00 0.00 0.00 68 1019.6
20260508200053 12 355 4.8 8.0 0.00 0.00 0.00 67 1019.6
20260508194604 12 25 4.8 11.3 0.00 0.00 0.00 67 1019.4
20260508193114 12 333 6.4 11.3 0.00 0.00 0.00 66 1019.2
20260508191604 12 24 4.8 14.5 0.00 0.00 0.00 66 1019.1
20260508190109 12 336 6.4 9.7 0.00 0.00 0.00 70 1019.0
20260508184555 12 344 6.4 9.7 0.00 0.00 0.00 75 1018.8
20260508183058 13 224 4.8 8.0 0.00 0.00 0.00 75 1018.6
20260508181558 15 0 0.0 3.2 0.00 0.00 0.00 72 1018.6
20260508174553 16 0 0.0 1.6 0.00 0.00 0.00 69 1018.3
20260508173055 16 0 0.0 4.8 0.00 0.00 0.00 69 1018.2
20260508171555 16 112 0.0 4.8 0.00 0.00 0.00 69 1018.2
20260508170059 16 0 0.0 4.8 0.00 0.00 0.00 69 1018.2